Location: Lhota
(50.0887°N, 14.0116°E)
Time: 04:43:55
(UTC+00:00)

Cosmos 2333 Rocket - Pass Details

Date: 19 May 2025
Orbit: 840 x 862 km, 70.8° (Epoch: 14 June)

Event Time Altitude Azimuth Distance (km) Brightness Sun altitude
Rises 20:19:57 0° 331° (NNW) 3,445 7.3 -11.5°
Reaches altitude 10° 20:23:21 10° 351° (N) 2,502 5.7 -11.8°
Maximum altitude 20:27:05 17° 32° (NNE) 2,018 4.4 -12.2°
Drops below altitude 10° 20:30:48 10° 73° (ENE) 2,486 4.5 -12.5°
Enters shadow 20:33:55 - 92° (E) 3,341 5.0 -12.8°
